Tracking 30918 objects as of 2-Jul-2025
HD Live streaming from Space Station
objects crossing your sky now

GGSE 1 (GGRS)

Track GGSE 1 (GGRS) now!
10-day predictions
GGSE 1 (GGRS) is classified as:


NORAD ID: 728
Int'l Code: 1964-001B
Perigee: 901.1 km
Apogee: 916.9 km
Inclination: 69.9 °
Period: 103.0 minutes
Semi major axis: 7279 km
RCS: 0.3887 m2 (medium)
Launch date: January 11, 1964
Source: United States (US)
Launch site: AIR FORCE WESTERN TEST RANGE (AFWTR)
Your satellite tracking list
COSMOS 1275 DEB
Track 1 satellite(s)




NASA's NSSDC Master Catalog

Two Line Element Set (TLE):
1 00728U 64001B   25182.87751683  .00000011  00000-0  45591-4 0  9991
2 00728  69.9066 237.9572 0010890  74.8785 285.3525 13.97679589130724
Source of the keplerian elements: AFSPC